TimeEDT,TemperatureF,Dew PointF,Humidity,Sea Level PressureIn,VisibilityMPH,Wind Direction,Wind SpeedMPH,Gust SpeedMPH,PrecipitationIn,Events,Conditions,WindDirDegrees,DateUTC
12:28 AM,55.4,55.4,100,30.25,10.0,Calm,Calm,-,N/A,,Clear,0,2013-10-29 04:28:00
12:33 AM,55.4,55.4,100,30.26,10.0,Calm,Calm,-,N/A,,Clear,0,2013-10-29 04:33:00
12:58 AM,55.2,55.2,100,30.26,9.0,Calm,Calm,-,N/A,,Clear,0,2013-10-29 04:58:00
1:58 AM,54.1,54.1,100,30.25,10.0,Calm,Calm,-,N/A,,Clear,0,2013-10-29 05:58:00
2:58 AM,53.1,53.1,100,30.25,10.0,Calm,Calm,-,N/A,,Clear,0,2013-10-29 06:58:00
3:18 AM,53.6,53.6,100,30.24,9.0,Calm,Calm,-,N/A,,Clear,0,2013-10-29 07:18:00
3:28 AM,51.8,51.8,100,30.23,10.0,Calm,Calm,-,N/A,,Clear,0,2013-10-29 07:28:00
3:58 AM,52.7,52.7,100,30.24,10.0,Calm,Calm,-,N/A,,Clear,0,2013-10-29 07:58:00
4:58 AM,52.7,52.7,100,30.26,10.0,Calm,Calm,-,N/A,,Clear,0,2013-10-29 08:58:00
5:08 AM,51.8,51.8,100,30.25,9.0,Calm,Calm,-,N/A,,Clear,0,2013-10-29 09:08:00
5:18 AM,51.8,51.8,100,30.25,10.0,Calm,Calm,-,N/A,,Clear,0,2013-10-29 09:18:00
5:58 AM,52.3,52.3,100,30.27,10.0,Calm,Calm,-,N/A,,Clear,0,2013-10-29 09:58:00
6:28 AM,51.8,51.8,100,30.27,8.0,Calm,Calm,-,N/A,,Clear,0,2013-10-29 10:28:00
6:58 AM,52.0,51.8,99,30.28,10.0,Calm,Calm,-,N/A,,Clear,0,2013-10-29 10:58:00
7:08 AM,51.8,51.8,100,30.27,9.0,Calm,Calm,-,N/A,,Clear,0,2013-10-29 11:08:00
7:23 AM,51.8,51.8,100,30.28,9.0,Calm,Calm,-,N/A,,Clear,0,2013-10-29 11:23:00
7:28 AM,50.0,50.0,100,30.28,7.0,Calm,Calm,-,N/A,,Clear,0,2013-10-29 11:28:00
7:58 AM,51.3,51.3,100,30.30,10.0,Calm,Calm,-,N/A,,Clear,0,2013-10-29 11:58:00
8:58 AM,56.3,56.3,100,30.31,10.0,Calm,Calm,-,N/A,,Clear,0,2013-10-29 12:58:00
9:58 AM,63.5,60.4,90,30.33,10.0,NNE,3.5,-,N/A,,Clear,30,2013-10-29 13:58:00
10:58 AM,70.0,61.3,74,30.34,10.0,North,4.6,-,N/A,,Clear,10,2013-10-29 14:58:00
11:58 AM,73.6,61.5,66,30.31,10.0,ENE,5.8,-,N/A,,Clear,70,2013-10-29 15:58:00
12:58 PM,75.9,61.3,60,30.29,10.0,Variable,4.6,-,N/A,,Clear,0,2013-10-29 16:58:00
1:58 PM,78.1,61.0,56,30.27,10.0,NE,6.9,-,N/A,,Clear,40,2013-10-29 17:58:00
2:58 PM,77.9,58.8,52,30.24,10.0,Variable,1.2,-,N/A,,Clear,0,2013-10-29 18:58:00
3:58 PM,77.5,58.1,51,30.24,10.0,NE,5.8,-,N/A,,Clear,50,2013-10-29 19:58:00
4:58 PM,75.6,57.9,54,30.24,10.0,NE,3.5,-,N/A,,Clear,50,2013-10-29 20:58:00
5:58 PM,73.0,60.1,64,30.25,10.0,ESE,5.8,-,N/A,,Scattered Clouds,120,2013-10-29 21:58:00
6:58 PM,66.0,60.3,82,30.26,10.0,ENE,1.2,-,N/A,,Clear,70,2013-10-29 22:58:00
7:58 PM,63.1,59.0,86,30.28,10.0,Calm,Calm,-,N/A,,Clear,0,2013-10-29 23:58:00
8:58 PM,60.8,59.2,94,30.28,10.0,Calm,Calm,-,N/A,,Clear,0,2013-10-30 00:58:00
9:58 PM,57.9,57.9,100,30.30,10.0,Calm,Calm,-,N/A,,Clear,0,2013-10-30 01:58:00
10:58 PM,56.3,56.3,100,30.30,10.0,Calm,Calm,-,N/A,,Clear,0,2013-10-30 02:58:00
11:58 PM,55.4,55.4,100,30.29,10.0,Calm,Calm,-,N/A,,Clear,0,2013-10-30 03:58:00